Date String (YYYY-MM-DD hh:mm:ss) UTC,Instrument flags,Ambient pressure (hPa),Sample flow (lpm),Bypass flow (lpm),Sample temperature (°C),Ambient temperature (°C),ASC tube jacket temperature (°C),LED temperature (°C),Box temperature (°C),Sample RH (%),Span deviation,Mass concentration (μg/m³),Mass concentration (μg/m³),Mass concentration (μg/m³)
DateTimeUTC,F1_M11,P_M11,Q1_M11,Q2_M11,T1_M11,T2_M11,T3_M11,T4_M11,T5_M11,U1_M11,ZSPAN_M11,X0_M11,X2_M11,X1_M11
2021-12-26 06:00:00,,0816.4,5.01,0.00,22.3,21.5,00.0,31.4,24.0,09.0,0000.0,0005.14,0001.25,0001.01
2021-12-26 06:01:00,,0816.4,4.99,0.00,22.3,21.5,00.0,31.4,24.0,09.0,0000.0,0005.18,0001.26,0001.02
2021-12-26 06:02:00,,0816.4,5.01,0.00,22.3,21.5,00.0,31.4,24.0,09.0,0000.0,0005.19,0001.26,0001.02
2021-12-26 06:03:00,,0816.4,5.01,0.00,22.3,21.5,00.0,31.4,24.0,09.0,0000.0,0005.19,0001.26,0001.02
2021-12-26 06:04:00,,0816.4,5.00,0.00,22.3,21.5,00.0,31.4,24.0,09.1,0000.0,0005.14,0001.25,0001.03
2021-12-26 06:05:00,,0816.3,4.99,0.00,22.3,21.5,00.0,31.4,24.0,09.0,0000.0,0005.01,0001.24,0001.03
2021-12-26 06:06:00,,0816.3,5.01,0.00,22.4,21.9,00.0,31.4,24.1,09.0,0000.0,0003.40,0001.24,0001.04
2021-12-26 06:07:00,,0816.3,5.00,0.00,22.5,22.7,00.0,31.4,24.4,08.9,0000.0,0002.29,0001.23,0001.04
2021-12-26 06:08:00,,0816.4,5.00,0.00,22.6,23.2,00.0,31.5,24.6,08.9,0000.0,0002.13,0001.25,0001.05
2021-12-26 06:09:00,,0816.3,5.00,0.00,22.7,23.0,00.0,31.5,24.6,08.8,0000.0,0002.11,0001.26,0001.06
2021-12-26 06:10:00,,0816.4,4.99,0.00,22.7,22.8,00.0,31.5,24.5,08.8,0000.0,0002.11,0001.26,0001.06
2021-12-26 06:11:00,,0816.3,5.01,0.00,22.7,22.6,00.0,31.5,24.5,08.8,0000.0,0002.06,0001.25,0001.06
2021-12-26 06:12:00,,0816.3,4.99,0.00,22.7,22.5,00.0,31.5,24.4,08.8,0000.0,0001.96,0001.22,0001.04
2021-12-26 06:13:00,,0816.3,5.01,0.00,22.7,22.4,00.0,31.5,24.4,08.8,0000.0,0001.93,0001.21,0001.04
2021-12-26 06:14:00,,0816.3,5.01,0.00,22.7,22.3,00.0,31.6,24.4,09.0,0000.0,0001.91,0001.20,0001.04
2021-12-26 06:15:00,,0816.3,4.98,0.00,22.7,22.2,00.0,31.6,24.4,09.1,0000.0,0001.86,0001.17,0001.02
2021-12-26 06:16:00,,0816.3,5.01,0.00,22.7,22.1,00.0,31.6,24.4,09.1,0000.0,0001.81,0001.16,0001.02
2021-12-26 06:17:00,,0816.3,5.00,0.00,22.6,22.1,00.0,31.6,24.4,09.1,0000.0,0001.45,0001.13,0001.01
2021-12-26 06:18:00,,0816.3,5.00,0.00,22.6,22.0,00.0,31.6,24.3,09.0,0000.0,0001.51,0001.13,0001.01
2021-12-26 06:19:00,,0816.2,5.01,0.00,22.6,21.9,00.0,31.6,24.3,09.0,0000.0,0001.46,0001.10,0001.00
2021-12-26 06:20:00,,0816.3,5.00,0.00,22.6,21.9,00.0,31.6,24.3,09.0,0000.0,0001.75,0001.08,0000.99
2021-12-26 06:21:00,,0816.4,5.01,0.00,22.6,21.9,00.0,31.6,24.2,09.0,0000.0,0001.84,0001.07,0000.98
2021-12-26 06:22:00,,0816.2,5.00,0.00,22.5,21.8,00.0,31.5,24.2,09.0,0000.0,0001.83,0001.06,0000.97
2021-12-26 06:23:00,,0816.3,5.00,0.00,22.5,21.8,00.0,31.5,24.2,09.0,0000.0,0001.82,0001.07,0000.98
2021-12-26 06:24:00,,0816.3,4.99,0.00,22.5,21.7,00.0,31.5,24.1,09.0,0000.0,0001.82,0001.08,0001.00
2021-12-26 06:25:00,,0816.3,5.01,0.00,22.5,21.7,00.0,31.5,24.1,09.0,0000.0,0001.82,0001.08,0001.00
2021-12-26 06:26:00,,0816.2,4.99,0.00,22.4,21.7,00.0,31.5,24.1,09.0,0000.0,0001.93,0001.11,0001.00
2021-12-26 06:27:00,,0816.1,5.01,0.00,22.4,21.6,00.0,31.5,24.1,08.9,0000.0,0002.00,0001.12,0001.00
2021-12-26 06:28:00,,0816.1,4.99,0.00,22.4,21.6,00.0,31.5,24.1,08.9,0000.0,0001.99,0001.11,0000.99
2021-12-26 06:29:00,,0816.1,5.01,0.00,22.4,21.6,00.0,31.5,24.0,08.9,0000.0,0001.92,0001.10,0000.98
2021-12-26 06:30:00,,0816.0,4.99,0.00,22.3,21.6,00.0,31.4,24.0,09.0,0000.0,0001.90,0001.09,0000.97
2021-12-26 06:31:00,,0816.0,5.00,0.00,22.3,21.6,00.0,31.4,24.0,09.0,0000.0,0001.65,0001.09,0000.97
2021-12-26 06:32:00,,0816.0,5.00,0.00,22.3,21.6,00.0,31.4,24.0,08.9,0000.0,0001.47,0001.09,0000.97
2021-12-26 06:33:00,,0816.0,4.99,0.00,22.3,21.5,00.0,31.4,24.0,08.9,0000.0,0001.48,0001.10,0000.98
2021-12-26 06:34:00,,0816.0,5.01,0.00,22.3,21.5,00.0,31.4,23.9,08.9,0000.0,0001.47,0001.09,0000.97
2021-12-26 06:35:00,,0816.0,5.01,0.00,22.3,21.5,00.0,31.4,23.9,08.9,0000.0,0001.44,0001.07,0000.95
2021-12-26 06:36:00,,0816.0,4.99,0.00,22.3,21.5,00.0,31.4,24.0,08.9,0000.0,0001.42,0001.06,0000.95
2021-12-26 06:37:00,,0815.9,5.01,0.00,22.3,21.5,00.0,31.3,24.0,08.9,0000.0,0001.31,0001.04,0000.96
2021-12-26 06:38:00,,0815.9,4.99,0.00,22.3,21.6,00.0,31.3,24.0,08.9,0000.0,0001.25,0001.03,0000.96
2021-12-26 06:39:00,,0815.9,5.00,0.00,22.3,21.6,00.0,31.3,23.9,08.9,0000.0,0001.27,0001.04,0000.97
2021-12-26 06:40:00,,0815.8,5.02,0.00,22.3,21.6,00.0,31.3,24.0,08.9,0000.0,0001.25,0001.04,0000.97
2021-12-26 06:41:00,,0815.8,4.99,0.00,22.3,21.6,00.0,31.3,24.0,08.9,0000.0,0001.23,0001.03,0000.97
2021-12-26 06:42:00,,0815.8,5.02,0.00,22.3,21.6,00.0,31.3,24.0,08.9,0000.0,0001.23,0001.03,0000.97
2021-12-26 06:43:00,,0815.8,4.99,0.00,22.3,21.6,00.0,31.3,24.0,08.8,0000.0,0001.25,0001.04,0000.98
2021-12-26 06:44:00,,0815.8,5.00,0.00,22.3,21.5,00.0,31.3,23.9,08.8,0000.0,0001.27,0001.05,0000.99
2021-12-26 06:45:00,,0815.9,4.99,0.00,22.3,21.5,00.0,31.3,23.9,08.9,0000.0,0001.31,0001.06,0001.00
2021-12-26 06:46:00,,0815.9,5.01,0.00,22.3,21.5,00.0,31.3,23.9,08.9,0000.0,0001.36,0001.09,0001.01
2021-12-26 06:47:00,,0815.9,4.99,0.00,22.3,21.5,00.0,31.3,23.9,08.9,0000.0,0001.41,0001.12,0001.02
2021-12-26 06:48:00,,0815.9,5.00,0.00,22.3,21.5,00.0,31.3,23.9,08.9,0000.0,0001.47,0001.15,0001.04
2021-12-26 06:49:00,,0815.9,5.01,0.00,22.3,21.8,00.0,31.3,24.0,08.9,0000.0,0001.52,0001.18,0001.05
2021-12-26 06:50:00,,0815.9,5.00,0.00,22.4,22.6,00.0,31.4,24.3,08.8,0000.0,0001.54,0001.20,0001.06
2021-12-26 06:51:00,,0815.9,4.98,0.00,22.5,23.1,00.0,31.4,24.5,08.7,0000.0,0001.61,0001.23,0001.08
2021-12-26 06:52:00,,0815.8,5.01,0.00,22.6,23.0,00.0,31.4,24.6,08.7,0000.0,0001.72,0001.28,0001.10
2021-12-26 06:53:00,,0815.8,5.00,0.00,22.6,22.8,00.0,31.4,24.5,08.7,0000.0,0002.77,0001.31,0001.12
2021-12-26 06:54:00,,0815.8,4.99,0.00,22.6,22.6,00.0,31.5,24.4,08.7,0000.0,0002.78,0001.31,0001.13
2021-12-26 06:55:00,,0815.7,5.00,0.00,22.6,22.4,00.0,31.5,24.4,08.7,0000.0,0002.79,0001.32,0001.14
2021-12-26 06:56:00,,0815.7,4.99,0.00,22.6,22.3,00.0,31.5,24.3,08.8,0000.0,0003.37,0001.34,0001.15
2021-12-26 06:57:00,,0815.6,5.00,0.00,22.6,22.2,00.0,31.5,24.3,08.8,0000.0,0003.61,0001.41,0001.15
2021-12-26 06:58:00,,0815.7,5.00,0.00,22.6,22.1,00.0,31.5,24.3,08.8,0000.0,0003.62,0001.41,0001.15
2021-12-26 06:59:00,,0815.9,5.01,0.00,22.6,22.1,00.0,31.5,24.3,08.8,0000.0,0003.60,0001.39,0001.15
